Theta_e
350 355 356 355 355 356 356 359 360 362 364 364 365 365 362 360 360 356 353 347 342 338 335 333 331 331 327 328 328 329 332 336 332 329 331 325 326 327 328 328 327 328 330
355 357 354 354 355 353 355 358 362 363 365 365 366 364 362 360 359 355 351 347 342 337 334 332 329 327 329 329 328 330 330 333 333 328 327 324 326 328 329 326 325 326 328
354 351 351 352 352 352 354 356 359 362 364 363 365 364 361 360 356 354 352 348 343 338 334 332 330 329 328 326 329 326 323 322 327 327 322 325 325 327 325 326 326 327 325
350 350 352 352 354 353 357 359 356 362 363 361 362 364 361 359 355 352 350 347 341 336 334 332 330 330 329 329 327 322 324 325 327 324 322 321 323 325 325 322 322 327 323
353 354 356 358 359 360 362 362 359 360 361 362 361 361 360 356 351 348 347 346 341 337 333 332 331 331 330 331 328 328 328 325 323 322 321 321 321 319 322 324 323 324 328
354 354 359 361 362 362 364 363 364 362 362 362 360 359 357 351 337 338 342 338 336 335 333 332 331 329 328 328 326 326 331 328 326 321 321 320 322 322 325 324 322 320 319
358 357 359 361 360 362 363 364 364 364 363 359 359 356 351 344 336 337 338 337 334 334 332 331 329 329 333 330 325 323 321 319 326 328 323 322 322 326 328 327 327 324 321
354 357 359 360 361 362 362 363 362 363 362 357 351 348 344 339 332 332 336 337 336 334 329 332 331 332 331 329 329 328 328 328 325 324 329 328 329 331 329 328 328 327 326
350 353 356 358 360 360 360 361 362 362 360 352 346 341 340 337 331 330 332 339 337 334 329 334 334 330 325 325 330 328 326 327 320 321 322 322 322 321 323 325 322 320 316
360 359 356 357 358 358 360 362 363 363 355 344 340 339 336 339 330 329 331 340 335 331 327 330 329 329 320 320 330 328 321 325 326 327 327 319 318 322 317 327 325 319 318
358 360 361 360 360 361 361 361 356 348 340 337 336 336 337 338 340 323 325 336 334 330 329 326 329 321 316 316 320 327 322 327 323 326 323 322 322 322 323 326 328 324 320
351 351 352 352 351 350 351 343 340 338 337 339 336 338 339 341 330 321 322 325 331 338 328 328 327 316 314 314 317 317 316 319 322 320 319 318 319 320 321 323 327 328 327
349 348 349 346 346 346 344 341 339 339 338 339 338 336 337 336 342 322 319 321 323 333 329 325 318 313 312 314 315 315 315 322 320 317 317 319 322 322 325 325 327 330 329
345 347 348 346 344 345 343 341 339 337 337 337 336 337 335 334 338 332 328 324 322 326 322 322 323 322 320 322 318 316 318 319 318 318 320 322 324 324 323 325 323 323 321
346 345 344 342 342 337 334 337 342 343 338 339 340 338 335 335 336 326 324 329 326 325 327 327 326 325 323 322 320 320 321 321 322 323 323 323 323 323 322 325 323 322 318
345 346 343 339 339 338 338 334 309 312 311 311 312 327 338 318 310 308 307 307 307 310 327 327 326 325 323 322 321 321 323 323 324 324 323 323 320 319 318 323 323 320 318
351 348 344 341 340 340 343 343 339 323 304 303 305 307 309 312 303 302 301 301 304 312 331 328 327 325 323 323 324 323 321 324 325 322 322 321 320 319 319 319 320 320 318
352 322 347 348 344 344 345 345 344 341 338 336 308 308 303 301 298 298 299 305 317 321 328 324 323 322 323 322 321 322 322 323 321 321 322 321 320 319 318 318 320 317 314
350 348 347 349 347 341 345 344 343 342 340 338 327 312 303 296 296 298 300 323 327 322 321 321 321 319 322 323 323 323 321 320 320 321 321 321 321 319 319 319 318 309 311
351 334 336 350 348 342 341 341 339 340 339 339 335 330 315 314 318 314 315 322 323 319 319 320 318 319 323 323 325 322 319 318 320 321 322 322 322 320 318 320 319 318 317
351 352 338 345 340 341 343 340 339 341 340 339 338 325 309 323 319 316 318 321 320 318 319 317 315 316 320 323 321 320 319 320 321 321 321 322 321 320 321 320 318 317 315
347 348 347 345 345 343 342 342 341 342 340 339 337 327 303 324 319 317 318 319 319 321 321 317 316 319 321 321 320 320 320 319 321 321 320 319 319 320 320 319 317 315 314
345 346 346 345 345 332 338 342 341 342 341 339 337 331 319 323 322 320 320 321 323 320 319 319 320 319 321 321 322 322 321 320 320 321 319 318 319 320 319 316 315 314 314
345 344 343 342 342 341 341 340 340 325 336 336 336 333 330 328 323 321 320 319 319 321 318 319 320 319 321 320 320 321 320 320 320 319 319 319 319 313 316 315 314 314 314
344 343 342 341 339 338 337 335 336 335 335 333 332 331 325 326 325 322 323 323 320 317 318 319 320 320 320 320 319 317 297 292 312 301 319 316 315 314 315 314 313 313 312
342 342 340 339 338 337 336 335 333 334 336 334 331 326 324 324 325 324 323 322 320 323 321 320 321 320 319 317 314 293 285 289 299 288 311 315 316 315 314 313 312 312 313
Wind_Speed
15 13 13 13 14 12 12 11 10 9 9 8 9 9 9 10 9 8 7 6 6 4 3 4 3 4 3 2 3 3 2 3 3 3 3 4 3 3 3 4 4 4 3
14 12 14 13 13 14 13 13 11 11 10 9 9 10 11 11 10 10 9 7 7 6 5 5 5 4 4 2 2 4 3 2 2 6 5 5 3 3 3 3 3 3 3
13 15 15 15 15 15 15 14 13 13 12 11 11 11 12 12 11 10 9 8 8 7 7 6 6 6 5 4 1 3 4 3 3 5 6 3 3 1 3 2 2 3 4
14 14 14 15 15 15 13 13 14 13 13 13 13 12 11 11 11 11 10 10 8 7 7 6 5 6 7 7 4 4 4 5 5 5 5 4 3 2 1 0 0 1 3
13 13 14 14 13 12 12 13 14 14 13 13 12 12 11 10 7 10 10 10 10 7 7 6 7 6 6 6 5 5 5 4 5 5 4 4 4 4 1 1 1 3 1
12 15 12 11 12 13 13 13 12 14 13 12 13 13 12 6 5 3 6 5 7 7 7 6 6 9 9 8 5 4 1 4 4 3 4 3 4 3 2 1 3 3 3
12 12 11 11 12 13 13 13 14 14 12 13 12 11 10 12 11 6 2 4 8 9 8 9 8 8 9 8 9 7 4 4 3 4 4 3 4 3 1 3 2 4 4
11 11 11 11 12 12 12 13 13 10 10 8 10 12 14 12 16 13 20 13 10 10 10 11 10 11 8 9 8 6 5 5 6 4 3 4 3 2 4 3 4 5 5
8 9 10 11 12 12 13 12 10 9 7 9 12 15 18 15 24 22 26 10 9 11 9 12 12 9 12 10 8 6 6 5 5 2 4 2 3 5 6 4 5 5 6
3 4 6 8 10 10 10 8 6 5 7 9 13 13 13 14 24 27 14 7 8 9 9 9 12 11 14 12 8 6 6 6 5 6 6 6 6 6 7 8 5 6 6
4 4 2 2 4 4 3 2 5 8 9 11 13 18 17 17 9 8 9 7 9 9 11 9 9 11 14 12 8 6 5 6 5 5 4 4 4 5 4 5 5 5 6
4 5 5 5 4 3 6 6 7 9 10 11 9 10 9 8 7 10 16 11 11 12 10 9 8 14 14 13 10 7 7 6 4 4 5 5 5 5 4 5 5 7 5
3 5 5 5 6 6 5 6 4 5 5 4 5 4 4 4 5 7 12 12 11 9 6 8 14 14 12 9 5 9 8 5 5 5 5 6 4 5 6 5 5 5 6
4 4 5 5 7 6 5 5 4 4 4 4 4 4 4 4 5 4 6 7 7 6 10 8 8 8 5 6 8 6 6 6 6 6 6 6 5 4 4 3 4 4 5
4 3 4 5 6 6 6 4 4 3 2 4 4 5 6 6 7 9 10 9 7 7 10 9 8 7 7 7 6 6 6 6 6 6 6 5 4 3 3 2 3 3 5
5 4 3 3 3 5 5 5 9 7 6 7 3 2 3 1 12 14 12 13 15 15 9 9 8 7 7 8 7 7 7 7 6 5 4 3 4 4 4 2 3 4 5
5 6 4 5 4 4 3 4 5 5 10 10 7 5 5 4 9 12 13 15 16 10 7 7 7 7 7 6 6 6 6 4 2 3 3 3 3 4 3 4 3 4 4
5 2 4 3 3 3 2 2 2 3 4 5 9 7 6 7 7 10 13 11 8 5 6 6 6 5 4 5 5 5 3 2 3 3 2 2 3 4 4 4 3 3 4
4 4 5 3 4 3 3 3 3 2 2 3 4 5 7 9 9 9 2 6 9 7 5 4 5 4 3 4 4 2 2 2 1 1 1 2 2 3 3 4 4 2 3
5 4 3 2 2 2 3 4 4 5 5 4 5 5 6 4 5 7 4 3 5 4 5 4 4 3 1 3 3 3 3 3 3 1 0 0 1 3 4 2 2 3 2
4 4 5 5 5 4 3 4 5 5 5 4 4 6 10 6 6 7 8 6 5 4 3 3 3 3 4 4 3 3 3 3 2 1 1 1 1 1 1 1 2 3 4
3 4 5 4 2 3 3 4 5 6 5 4 4 5 10 5 5 6 6 6 5 4 5 3 3 3 4 4 5 4 3 3 2 2 2 2 3 2 1 2 3 4 5
3 4 2 2 3 4 3 4 5 5 5 4 5 6 7 7 5 6 7 7 5 5 4 4 5 5 5 5 4 3 3 4 4 3 3 3 3 1 1 3 4 5 5
5 5 4 4 4 3 3 3 4 3 3 4 5 6 7 8 7 9 7 7 7 5 3 4 6 8 8 6 5 5 5 5 4 4 2 2 2 3 3 4 5 6 7
4 3 3 3 3 3 2 3 3 4 4 4 4 5 7 6 7 8 8 7 6 3 4 5 6 9 9 8 8 8 8 5 2 4 3 3 2 2 4 5 6 7 8
3 3 3 3 3 3 3 4 4 4 4 4 5 5 7 7 8 9 8 9 8 9 8 7 9 11 11 9 10 11 7 6 3 2 3 3 2 3 4 5 7 6 6
Wind_Direction
198 200 205 213 216 220 223 227 226 222 216 216 208 201 195 201 192 195 190 175 192 187 196 180 140 153 132 131 129 134 175 216 222 133 124 126 131 149 90 44 6 1 30
196 198 207 210 217 221 222 226 222 222 217 214 209 203 201 205 193 199 198 185 193 200 200 183 170 182 135 107 103 91 98 161 176 154 129 148 137 122 87 64 13 19 351
199 203 209 211 214 221 222 223 221 222 221 212 207 205 201 203 191 195 192 187 196 201 193 199 189 185 141 119 60 106 108 114 146 157 132 140 110 120 118 84 6 331 277
205 209 214 215 219 222 222 215 219 219 219 214 211 206 199 193 185 186 190 192 185 200 199 189 193 193 156 150 140 137 143 124 120 135 138 142 148 113 118 29 180 1 0
204 206 212 214 220 225 224 218 217 220 220 213 206 202 192 182 179 177 189 185 184 190 196 178 189 192 169 167 169 144 158 151 143 147 143 154 154 169 129 60 317 325 230
216 219 213 210 212 218 221 224 224 221 217 207 204 192 184 165 156 133 156 180 174 183 193 181 181 170 171 166 142 169 146 157 145 158 150 142 137 160 163 293 304 327 334
221 229 224 215 218 219 219 218 225 223 211 204 200 179 148 106 82 39 352 240 211 176 182 180 189 177 174 157 140 136 124 90 102 143 138 151 161 178 262 253 277 303 304
225 233 231 224 222 222 223 226 233 232 223 194 157 137 125 132 116 161 233 224 221 183 168 184 197 167 167 156 159 158 157 145 143 151 148 159 219 187 242 294 307 292 256
226 235 237 231 228 224 227 229 231 228 211 159 147 147 149 159 165 202 224 211 198 185 169 185 187 171 159 166 170 174 178 184 155 245 270 290 252 238 261 261 250 278 317
352 240 222 230 233 232 238 242 237 219 146 140 148 157 177 179 200 219 176 193 198 185 162 177 183 173 158 168 183 184 187 184 189 180 190 191 199 189 212 239 280 285 307
21 30 43 177 216 233 221 192 134 126 118 130 146 156 180 223 204 150 191 184 193 194 173 171 180 154 162 174 197 191 195 166 184 221 225 238 238 240 249 224 246 265 282
32 29 42 46 50 67 98 97 119 130 142 163 178 185 181 169 146 185 190 195 197 196 175 165 158 159 168 169 181 147 150 191 197 232 258 269 278 281 276 266 255 241 246
98 89 60 59 74 78 101 114 121 134 151 185 178 136 110 159 176 198 188 168 174 188 158 149 138 157 155 159 155 155 172 222 236 251 268 285 294 293 296 258 240 225 228
37 62 84 81 81 83 93 103 105 114 126 148 149 147 134 173 182 175 181 164 142 107 114 132 139 142 129 132 152 173 214 229 248 265 286 298 292 266 264 260 254 208 239
85 81 72 89 96 91 62 51 105 109 119 170 175 166 174 204 192 170 170 165 166 144 141 147 153 162 172 179 187 199 211 223 238 257 268 283 281 286 292 270 252 217 254
166 127 114 103 109 106 115 115 61 67 71 58 56 321 157 136 147 159 158 131 133 157 157 163 169 180 193 194 202 207 219 225 247 260 261 262 280 306 315 274 259 254 289
181 160 165 172 138 125 128 147 132 94 72 58 51 58 16 153 150 152 140 142 155 156 175 175 180 188 196 200 203 207 215 211 262 245 247 272 300 301 265 284 272 277 283
197 172 194 170 146 147 190 194 177 166 154 145 66 48 68 129 131 130 136 123 142 201 182 167 170 159 190 196 198 210 219 214 217 229 248 290 301 303 292 275 283 309 307
200 185 216 199 179 163 180 203 233 287 270 144 141 97 71 82 97 113 257 162 172 163 161 152 162 167 195 191 205 204 221 207 227 242 264 301 311 284 284 285 284 234 306
215 218 233 205 148 184 203 218 219 219 230 203 175 161 147 148 153 167 203 173 145 139 157 161 154 138 118 232 211 190 179 189 173 179 19 307 254 289 303 323 318 306 244
230 210 217 202 199 199 203 218 212 223 228 229 199 175 168 181 170 175 189 165 148 141 154 173 151 147 195 218 219 186 177 148 137 151 175 203 264 159 112 18 303 294 296
246 232 201 213 189 187 200 215 214 223 220 209 197 171 164 184 156 164 174 157 141 171 185 144 127 198 210 177 169 161 152 152 138 135 140 150 158 142 40 331 322 312 301
253 241 191 158 180 133 165 217 220 225 222 219 208 175 177 199 173 164 177 166 151 146 128 151 180 180 150 143 135 138 154 123 119 138 146 157 168 191 287 300 290 289 303
220 208 177 176 177 182 204 204 233 241 257 211 212 192 187 187 167 169 155 135 118 148 115 170 177 155 140 133 129 128 118 118 125 135 158 156 191 180 265 286 302 321 308
200 175 197 186 182 195 191 254 247 247 190 204 194 189 178 177 160 146 141 132 118 101 181 176 145 146 137 137 131 110 93 65 80 24 169 205 227 255 285 295 325 318 321
180 188 205 208 207 221 234 245 259 257 226 188 170 169 168 171 169 153 152 147 147 190 176 161 151 137 140 129 112 106 120 129 120 14 256 200 235 274 307 318 327 322 331